Location: Unspecified
(48.5670°N, 0.0000°E)
Time: 01:41:08
(UTC+00:00)

NO-84 - Visible Passes

Search period start: 24 October 2020 00:00
Search period end: 03 November 2020 00:00
Orbit: 321 x 470 km, 55.0° (Epoch: 21 October)

Date Brightness Start Highest point End Pass type
(mag) Time Alt. Az. Time Alt. Az. Time Alt. Az.
24 Oct ? 03:49:56 11° SE 03:49:56 11° SE 03:50:59 10° ESE visible
24 Oct ? 05:22:27 13° SW 05:25:22 70° SSE 05:28:33 10° ENE visible
25 Oct ? 04:30:07 35° SSE 04:30:30 37° SE 04:33:32 10° ENE visible
26 Oct ? 03:37:35 13° E 03:37:35 13° E 03:38:13 10° E visible
26 Oct ? 05:10:05 33° WSW 05:11:25 69° NNW 05:14:36 10° NE visible
27 Oct ? 04:17:24 39° ENE 04:17:24 39° ENE 04:19:36 10° ENE visible
27 Oct ? 05:49:53 12° W 05:52:32 32° NNW 05:55:25 10° NE visible
28 Oct ? 04:57:04 44° NW 04:57:18 45° NNW 05:00:25 10° NE visible
29 Oct ? 04:04:08 21° NE 04:04:08 21° NE 04:05:22 10° ENE visible
29 Oct ? 05:36:36 16° WNW 05:38:27 27° N 05:41:13 10° NE visible
30 Oct ? 04:43:35 31° N 04:43:35 31° N 04:46:03 10° NE visible
31 Oct ? 03:50:28 13° NE 03:50:28 13° NE 03:50:54 10° NE visible
31 Oct ? 05:22:56 20° NW 05:24:12 25° N 05:26:53 10° NE visible
01 Nov ? 04:29:46 23° NNE 04:29:46 23° NNE 04:31:33 10° NE visible
01 Nov ? 06:02:25 10° NW 06:05:18 28° N 06:08:02 10° ENE visible
02 Nov ? 05:09:00 23° NNW 05:09:46 25° N 05:12:28 10° ENE visible
